Location: Bon Acre
(42.6442°N, 73.5758°W)
Time: 02:57:37
(UTC+00:00)

SL-08 R/B - Pass Details

Date: 20 March 2026
Orbit: 946 x 992 km, 83.0° (Epoch: 13 April)

Event Time Altitude Azimuth Distance (km) Brightness Sun altitude
Rises 23:23:23 0° 130° (SE) 3,610 7.0 -3.9°
Reaches altitude 10° 23:27:25 10° 104° (ESE) 2,666 6.1 -4.6°
Maximum altitude 23:29:57 13° 79° (ENE) 2,463 6.0 -5.1°
Drops below altitude 10° 23:32:29 10° 54° (NE) 2,672 6.4 -5.6°
Sets 23:36:31 0° 28° (NNE) 3,624 7.3 -6.3°
